This is the latest recevied weather packets stored in our database for station/object IN3XSV. If no packets are shown the sender has not sent any weather packets the latest 10 day(s).
| Time | Temp. | Humidity | Pressure | Rain* | Wind** | Luminosity | Snow |
|---|---|---|---|---|---|---|---|
| 1778162016 | 15.56° C | 70% | 1006 hPa | 0 mm | - | - | - |
| 1778161716 | 15.56° C | 69% | 1006.1 hPa | 0 mm | - | - | - |
| 1778161416 | 15.56° C | 70% | 1006.2 hPa | 0 mm | - | - | - |
| 1778161116 | 15.56° C | 74% | 1006.2 hPa | 0 mm | - | - | - |
| 1778160816 | 15.56° C | 73% | 1006.3 hPa | 0 mm | - | - | - |
| 1778160516 | 15.56° C | 73% | 1006.3 hPa | 0 mm | - | - | - |
| 1778160216 | 15° C | 73% | 1006.4 hPa | 0 mm | - | - | - |
| 1778159916 | 15° C | 73% | 1006.6 hPa | 0 mm | - | - | - |
| 1778159616 | 15° C | 74% | 1006.6 hPa | 0 mm | - | - | - |
| 1778159316 | 14.44° C | 74% | 1006.7 hPa | 0 mm | - | - | - |
| 1778159016 | 14.44° C | 75% | 1006.6 hPa | 0 mm | - | - | - |
| 1778158716 | 13.89° C | 77% | 1006.4 hPa | 0 mm | - | - | - |
| 1778158462 | 13.89° C | 77% | 1006.4 hPa | 0 mm | - | - | - |
| 1778158416 | 13.89° C | 77% | 1006.4 hPa | 0 mm | - | - | - |
| 1778158158 | 13.33° C | 78% | 1006.7 hPa | 0 mm | - | - | - |
| 1778158116 | 13.33° C | 78% | 1006.7 hPa | 0 mm | - | - | - |
| 1778157816 | 13.33° C | 78% | 1006.6 hPa | 0.51 mm | - | - | - |
| 1778157516 | 13.33° C | 78% | 1006.6 hPa | 0.51 mm | - | - | - |
| 1778157216 | 13.33° C | 77% | 1006.7 hPa | 66.8 mm | - | - | - |
| 1778156916 | 12.78° C | 77% | 1006.6 hPa | 126.24 mm | - | - | - |
| 1778156616 | 12.78° C | 76% | 1006.7 hPa | 126.75 mm | - | - | - |
| 1778156316 | 13.33° C | 75% | 1006.7 hPa | 126.75 mm | - | - | - |
| 1778156016 | 13.33° C | 72% | 1006.7 hPa | 126.75 mm | - | - | - |
| 1778155716 | 13.33° C | 71% | 1006.6 hPa | 126.75 mm | - | - | - |
| 1778155416 | 13.33° C | 70% | 1006.7 hPa | 126.75 mm | - | - | - |
* Rain latest hour (hover to see other rain measurements)
** Current wind speed in m/s (hover to see current wind gust speed)